Orbital elements:
2024 JY16                                                Earth MOID = 0.0005 AU
Epoch 2024 Mar. 31.0 TT = JDT 2460400.5                 Veres                   
M 347.76605              (2000.0)            P               Q                  
n   0.27637070     Peri.  179.10456     -0.59616911     +0.71945989             
a   2.3342178      Node    54.20741     -0.73931240     -0.31890716             
e   0.5666904      Incl.   26.05771     -0.31304883     -0.61698922             
P   3.57           H   24.78          G   0.15           U   7                  
Residuals in seconds of arc
240513 703  0.5+  0.2-    240513 L04  0.3-  0.1+    240513 L65  0.1-  0.1+
240513 703  0.9+  0.0     240513 L04  0.3-  0.0     240513 K35  0.1-  1.9-
240513 703  0.3-  0.4+    240513 K88  0.0   0.1-    240513 K35  0.1-  1.2-
240513 H01  0.1-  0.1-    240513 K88  0.0   0.1-    240513 K35  0.3-  0.2-
240513 I52  0.0   0.0     240513 K88  0.0   0.4+    240513 K35  0.5-  0.5-
240513 I52  0.0   0.0     240513 M38  0.2+  0.2+    240513 K35  0.3-  0.4-
240513 H01  0.0   0.1-    240513 M38  0.2-  0.4+    240513 K35  0.2-  0.1+
240513 I52  0.0   0.1-    240513 G19  0.1-  0.0     240513 K35  0.3-  0.1+
240513 I52  0.0   0.0     240513 033  0.0   0.1+    240513 K35  0.1-  0.1-
240513 H01  0.1-  0.1-    240513 033  0.0   0.2+    240513 K35  0.3-  0.3+
240513 H01  0.0   0.0     240513 033  0.0   0.2+    240513 033  0.0   0.0
240513 I52  0.1-  0.1+    240513 033  0.0   0.1+    240513 033  0.0   0.0
240513 I52  0.1+  0.1+    240513 K74  0.1+  0.1+    240513 033  0.0   0.1+
240513 I52  0.2+  0.1+    240513 K74  0.2+  0.1+    240513 G34  0.1+  0.0
240513 I52  0.0   0.0     240513 K74  0.3+  0.1-    240513 G34  0.1+  0.2+
240513 P13  0.4-  0.0     240513 K74  0.2+  0.4+    240513 G34  0.0   0.0
240513 P13  0.2+  0.4+    240513 K74  0.1+  0.1+    240513 G34  0.0   0.0
240513 P13  0.8+  0.1+    240513 B72  0.2-  0.1+    240513 G34  0.1+  0.2+
240513 P13  0.4+  0.3+    240513 G19  0.2+  0.2+    240513 G00  0.3-  0.0
240513 M44  0.4-  0.3-    240513 B72  0.1-  0.1+    240513 G00  0.3-  0.2+
240513 M44  0.2-  0.2+    240513 B72  0.3-  0.1+    240513 G00  0.6-  0.2-
240513 M44  0.1-  0.2-    240513 B72  0.2-  0.1+    240513 G00  0.0   0.1+
240513 L04  0.3+  0.0     240513 L65  0.4+  0.1+    240513 G00  0.4-  0.1-
240513 L04  0.3-  0.0     240513 L65  0.1-  0.4-

Ephemeris:
2024 JY16                a,e,i = 2.33, 0.57, 26                  q = 1.0114
Date    TT    R. A. (2000) Decl.     Delta      r    Elong.  Phase     V
2024 04 13    15 30 02.3 +69 33 23   0.2963  1.0870    98.5    65.8    24.6
...
2024 04 28    15 29 50.4 +70 23 29   0.1626  1.0328    94.7    76.3    23.6
...
2024 05 06    15 22 20.3 +70 23 18   0.08715 1.0170    92.9    82.2    22.4
...
2024 05 12    14 50 34.9 +69 24 03   0.02956 1.0119    92.4    86.0    20.2
2024 05 13    14 29 34.1 +68 25 55   0.01994 1.0116    92.7    86.2    19.3
2024 05 14    13 39 45.5 +64 54 42   0.01040 1.0114    94.1    85.3    17.9
...
2024 05 20    04 05 50.9 -71 14 12   0.04786 1.0140    91.3    86.0    21.2
...
2024 05 28    03 45 12.2 -71 00 19   0.1242  1.0266    92.7    80.4    23.1
...
2024 06 12    03 36 44.8 -71 29 22   0.2609  1.0761    96.4    69.7    24.5

M. P. C. Staff               (C) Copyright 2024 MPC           M.P.E.C. 2024-J299





More information about the Iaude mailing list